Minot, ND

1:27 AM CDT on August 20, 2017 (GMT -0500)
Minot International

Weather History for KMOT - December, 2013

Change the Weather History Date:

Wednesday, December 11, 2013

  Actual Average Record
Temperature  
Mean Temperature -5 °F 16 °F  
Max Temperature 8 °F 25 °F 62 °F (1939)
Min Temperature -18 °F 8 °F -31 °F (1917)
Degree Days  
Heating Degree Days 70 49  
Month to date heating degree days 712 515  
Since 1 July heating degree days 2767 2573  
Moisture  
Dew Point -11 °F    
Average Humidity 76    
Maximum Humidity 87    
Minimum Humidity 65    
Precipitation  
Precipitation 0.00 in 0.01 in 0.40 in (1919)
Month to date precipitation 0.11 0.13  
Year to date precipitation 24.92 16.94  
Sea Level Pressure  
Sea Level Pressure 30.37 in    
Wind  
Wind Speed 8 mph (SW)    
Max Wind Speed 18 mph    
Max Gust Speed 21 mph    
Visibility 10 miles    
Events      
T = Trace of Precipitation, MM = Missing Value Source: NWS Daily Summary

Daily Weather History Graph

Daily Weather History Graph

Search for Another Location

Airport or City:

Trip Planner

Search our weather history database for the weather conditions in past years. The results will help you decide how hot, cold, wet, or windy it might be!

Date:

Astronomy

Dec. 11, 2013 Rise Set
Actual Time 8:26 AM CST 4:50 PM CST
Civil Twilight 7:49 AM CST 5:27 PM CST
Nautical Twilight 7:10 AM CST 6:07 PM CST
Astronomical Twilight 6:32 AM CST 6:44 PM CST
Moon 1:45 PM CST (12/11) 2:27 AM CST (12/11)
Length of Visible Light 9h 37m
Length of Day
8h 24m
Waxing Gibbous, 72% of the Moon is Illuminated
Dec 11
Waxing Gibbous
Dec 17
Full
Dec 25
Last Quarter
Jan 1
New
Jan 7
First Quarter

Hourly Weather History & Observations

Time (CST) Temp. Windchill Dew Point Humidity Pressure Visibility Wind Dir Wind Speed Gust Speed Precip Events Conditions
12:54 AM -11.0 °F -34.2 °F -18.9 °F 68% 30.50 in 10.0 mi West 16.1 mph - N/A   Clear
1:54 AM -13.0 °F -32.4 °F -20.0 °F 71% 30.51 in 10.0 mi WSW 10.4 mph - N/A   Clear
2:54 AM -13.0 °F -31.3 °F -20.0 °F 71% 30.53 in 10.0 mi WSW 9.2 mph - N/A   Clear
3:54 AM -15.0 °F -34.8 °F -22.0 °F 71% 30.53 in 10.0 mi SSW 10.4 mph - N/A   Clear
4:54 AM -16.1 °F -32.3 °F -22.0 °F 74% 30.53 in 10.0 mi WSW 6.9 mph - N/A   Clear
5:54 AM -16.1 °F -33.7 °F -22.0 °F 74% 30.53 in 10.0 mi SW 8.1 mph - N/A   Clear
6:54 AM -18.0 °F -34.7 °F -23.1 °F 78% 30.51 in 10.0 mi SSW 6.9 mph - N/A   Clear
7:54 AM -17.0 °F -34.8 °F -23.1 °F 74% 30.50 in 10.0 mi SW 8.1 mph - N/A   Clear
8:54 AM -14.1 °F -34.7 °F -20.0 °F 75% 30.48 in 10.0 mi SW 11.5 mph - N/A   Clear
9:54 AM -9.9 °F -28.6 °F -17.0 °F 71% 30.45 in 10.0 mi SSW 10.4 mph - N/A   Clear
10:54 AM -7.1 °F -23.9 °F -15.0 °F 68% 30.43 in 10.0 mi SW 9.2 mph - N/A   Clear
11:54 AM -2.0 °F -19.6 °F -11.9 °F 63% 30.39 in 10.0 mi SSW 11.5 mph - N/A   Clear
12:54 PM -0.9 °F -15.3 °F -9.9 °F 66% 30.33 in 10.0 mi South 8.1 mph - N/A   Clear
1:54 PM 1.9 °F -11.8 °F -7.1 °F 66% 30.27 in 10.0 mi SSE 8.1 mph - N/A   Mostly Cloudy
2:54 PM 5.0 °F -6.9 °F -4.0 °F 66% 30.25 in 10.0 mi South 6.9 mph - N/A   Overcast
3:54 PM 6.1 °F -7.8 °F -0.9 °F 73% 30.22 in 10.0 mi SSW 9.2 mph - N/A   Overcast
4:54 PM 7.0 °F -1.7 °F -0.9 °F 70% 30.22 in 10.0 mi West 4.6 mph - N/A   Overcast
5:54 PM 6.1 °F -5.6 °F -0.9 °F 73% 30.23 in 10.0 mi West 6.9 mph - N/A   Mostly Cloudy
6:54 PM 3.0 °F -8.0 °F -2.9 °F 76% 30.25 in 10.0 mi WSW 5.8 mph - N/A   Clear
7:54 PM 6.1 °F -7.8 °F -0.9 °F 73% 30.25 in 10.0 mi WSW 9.2 mph - N/A   Clear
8:54 PM 1.9 °F -9.2 °F -2.9 °F 80% 30.25 in 10.0 mi SW 5.8 mph - N/A   Clear
9:54 PM 1.9 °F -10.6 °F -2.9 °F 80% 30.26 in 10.0 mi SSW 6.9 mph - N/A   Clear
10:54 PM 3.0 °F -10.5 °F -2.0 °F 80% 30.26 in 10.0 mi SW 8.1 mph - N/A   Clear
11:54 PM 5.0 °F -4.1 °F -0.0 °F 80% 30.25 in 10.0 mi WSW 4.6 mph - N/A   Clear